This is the latest recevied weather packets stored in our database for station/object KC0FGX-1. If no packets are shown the sender has not sent any weather packets the latest 10 day(s).
| Time | Temp. | Humidity | Pressure | Rain* | Wind** | Luminosity | Snow |
|---|---|---|---|---|---|---|---|
| 1777594823 | 12.22° C | 60% | 1014.1 hPa | 0 mm | - | - | - |
| 1777594611 | 12.22° C | 60% | 1014 hPa | 0 mm | - | - | - |
| 1777593823 | 12.22° C | 61% | 1013.9 hPa | 0 mm | - | - | - |
| 1777592823 | 12.78° C | 62% | 1013.6 hPa | 0 mm | - | - | - |
| 1777592811 | 13.33° C | 62% | 1013.5 hPa | 0 mm | - | - | - |
| 1777591823 | 12.78° C | 62% | 1013.5 hPa | 0 mm | - | - | - |
| 1777591011 | 13.33° C | 64% | 1013.5 hPa | 0 mm | - | - | - |
| 1777590823 | 13.33° C | 64% | 1013.5 hPa | 0 mm | - | - | - |
| 1777589823 | 13.33° C | 66% | 1013.4 hPa | 0 mm | - | - | - |
| 1777589212 | 13.33° C | 70% | 1013.3 hPa | 0 mm | - | - | - |
| 1777588823 | 13.89° C | 68% | 1013.1 hPa | 0 mm | - | - | - |
| 1777587823 | 13.89° C | 78% | 1012.9 hPa | 0 mm | - | - | - |
| 1777587412 | 13.33° C | 79% | 1012.9 hPa | 0 mm | - | - | - |
| 1777586823 | 12.78° C | 82% | 1012.9 hPa | 0 mm | - | - | - |
| 1777585823 | 12.78° C | 80% | 1013.1 hPa | 0 mm | - | - | - |
| 1777585611 | 12.78° C | 81% | 1013 hPa | 0 mm | - | - | - |
| 1777584823 | 13.33° C | 77% | 1012.9 hPa | 1.27 mm | - | - | - |
| 1777583823 | 14.44° C | 84% | 1012.6 hPa | 2.29 mm | - | - | - |
| 1777583812 | 14.44° C | 83% | 1012.6 hPa | 2.29 mm | - | - | - |
| 1777582823 | 13.33° C | 85% | 1012.7 hPa | 2.29 mm | - | - | - |
| 1777582011 | 13.33° C | 82% | 1012.9 hPa | 2.29 mm | - | - | - |
| 1777581823 | 13.33° C | 79% | 1013 hPa | 2.29 mm | - | - | - |
| 1777580823 | 14.44° C | 69% | 1013 hPa | 1.27 mm | - | - | - |
| 1777580212 | 14.44° C | 72% | 1012.5 hPa | 1.27 mm | - | - | - |
| 1777579823 | 13.89° C | 72% | 1012.7 hPa | 1.27 mm | - | - | - |
* Rain latest hour (hover to see other rain measurements)
** Current wind speed in m/s (hover to see current wind gust speed)